Time,TemperatureF,DewpointF,PressureIn,WindDirection,WindDirectionDegrees,WindSpeedMPH,WindSpeedGustMPH,Humidity,HourlyPrecipIn,Conditions,Clouds,dailyrainin,SoftwareType,DateUTC
2013-06-29 00:01:00,91.1,32.3,29.90,ENE,68,2.7,5.4,13,0.00,,,0.00,WUHU216HW,2013-06-29 07:01:00,
2013-06-29 00:06:00,91.1,32.3,29.90,ENE,68,2.5,5.4,13,0.00,,,0.00,WUHU216HW,2013-06-29 07:06:00,
2013-06-29 00:11:00,91.1,32.3,29.90,ENE,68,1.8,4.0,13,0.00,,,0.00,WUHU216HW,2013-06-29 07:11:00,
2013-06-29 00:16:00,91.1,32.3,29.90,NE,45,3.1,3.8,13,0.00,,,0.00,WUHU216HW,2013-06-29 07:16:00,
2013-06-29 00:21:00,91.1,32.3,29.90,East,90,2.0,3.8,13,0.00,,,0.00,WUHU216HW,2013-06-29 07:21:00,
2013-06-29 00:26:00,90.7,32.1,29.90,East,90,2.5,3.8,13,0.00,,,0.00,WUHU216HW,2013-06-29 07:26:00,
2013-06-29 00:31:00,90.7,32.1,29.90,ENE,68,2.7,3.8,13,0.00,,,0.00,WUHU216HW,2013-06-29 07:31:00,
2013-06-29 00:36:00,90.4,31.8,29.90,ENE,68,1.6,3.1,13,0.00,,,0.00,WUHU216HW,2013-06-29 07:36:00,
2013-06-29 00:41:00,90.4,31.8,29.91,East,90,3.4,4.0,13,0.00,,,0.00,WUHU216HW,2013-06-29 07:41:00,
2013-06-29 00:46:00,90.2,31.6,29.91,ENE,68,2.5,4.0,13,0.00,,,0.00,WUHU216HW,2013-06-29 07:46:00,
2013-06-29 00:51:00,90.0,31.4,29.91,East,90,0.9,3.4,13,0.00,,,0.00,WUHU216HW,2013-06-29 07:51:00,
2013-06-29 00:56:00,89.8,31.3,29.91,ESE,113,0.4,2.5,13,0.00,,,0.00,WUHU216HW,2013-06-29 07:56:00,
2013-06-29 01:01:00,89.6,33.0,29.91,East,90,0.0,1.6,14,0.00,,,0.00,WUHU216HW,2013-06-29 08:01:00,
2013-06-29 01:06:00,89.6,33.0,29.91,North,0,1.1,2.5,14,0.00,,,0.00,WUHU216HW,2013-06-29 08:06:00,
2013-06-29 01:11:00,89.6,31.1,29.91,WSW,248,2.5,2.5,13,0.00,,,0.00,WUHU216HW,2013-06-29 08:11:00,
2013-06-29 01:16:00,89.6,31.1,29.91,WSW,248,1.6,2.5,13,0.00,,,0.00,WUHU216HW,2013-06-29 08:16:00,
2013-06-29 01:21:00,89.6,31.1,29.91,WSW,248,0.0,2.5,13,0.00,,,0.00,WUHU216HW,2013-06-29 08:21:00,
2013-06-29 01:26:00,89.6,31.1,29.90,North,0,0.2,1.8,13,0.00,,,0.00,WUHU216HW,2013-06-29 08:26:00,
2013-06-29 01:31:00,89.6,31.1,29.90,WNW,293,1.1,1.8,13,0.00,,,0.00,WUHU216HW,2013-06-29 08:31:00,
2013-06-29 01:36:00,89.8,31.3,29.90,North,0,1.8,1.8,13,0.00,,,0.00,WUHU216HW,2013-06-29 08:36:00,
2013-06-29 01:41:00,90.0,31.4,29.90,NNE,23,1.1,2.0,13,0.00,,,0.00,WUHU216HW,2013-06-29 08:41:00,
2013-06-29 01:46:00,90.0,31.4,29.90,NNE,23,1.1,2.0,13,0.00,,,0.00,WUHU216HW,2013-06-29 08:46:00,
2013-06-29 01:51:00,90.0,31.4,29.90,NNE,23,1.8,2.0,13,0.00,,,0.00,WUHU216HW,2013-06-29 08:51:00,
2013-06-29 01:56:00,90.0,31.4,29.90,NE,45,1.8,2.5,13,0.00,,,0.00,WUHU216HW,2013-06-29 08:56:00,
2013-06-29 02:01:00,90.0,31.4,29.91,SE,135,1.1,2.5,13,0.00,,,0.00,WUHU216HW,2013-06-29 09:01:00,
2013-06-29 02:06:00,89.6,31.1,29.91,SE,135,2.0,2.2,13,0.00,,,0.00,WUHU216HW,2013-06-29 09:06:00,
2013-06-29 02:11:00,89.3,32.7,29.91,ENE,68,2.2,2.7,14,0.00,,,0.00,WUHU216HW,2013-06-29 09:11:00,
2013-06-29 02:16:00,89.1,32.5,29.91,ENE,68,1.8,2.7,14,0.00,,,0.00,WUHU216HW,2013-06-29 09:16:00,
2013-06-29 02:21:00,88.9,34.1,29.91,East,90,2.5,2.5,15,0.00,,,0.00,WUHU216HW,2013-06-29 09:21:00,
2013-06-29 02:26:00,88.6,33.8,29.91,ESE,113,1.8,3.1,15,0.00,,,0.00,WUHU216HW,2013-06-29 09:26:00,
2013-06-29 02:31:00,88.2,33.6,29.91,ESE,113,2.2,3.8,15,0.00,,,0.00,WUHU216HW,2013-06-29 09:31:00,
2013-06-29 02:36:00,87.8,33.3,29.91,ESE,113,2.9,3.8,15,0.00,,,0.00,WUHU216HW,2013-06-29 09:36:00,
2013-06-29 02:41:00,87.7,33.1,29.90,ESE,113,2.2,3.1,15,0.00,,,0.00,WUHU216HW,2013-06-29 09:41:00,
2013-06-29 02:46:00,87.5,33.0,29.90,East,90,3.6,5.1,15,0.00,,,0.00,WUHU216HW,2013-06-29 09:46:00,
2013-06-29 02:51:00,87.3,32.9,29.89,East,90,4.7,6.9,15,0.00,,,0.00,WUHU216HW,2013-06-29 09:51:00,
2013-06-29 02:56:00,87.3,32.9,29.89,East,90,3.6,6.9,15,0.00,,,0.00,WUHU216HW,2013-06-29 09:56:00,
2013-06-29 03:01:00,87.3,32.9,29.89,ESE,113,5.4,6.5,15,0.00,,,0.00,WUHU216HW,2013-06-29 10:01:00,
2013-06-29 03:06:00,87.3,32.9,29.89,ENE,68,5.6,6.7,15,0.00,,,0.00,WUHU216HW,2013-06-29 10:06:00,
2013-06-29 03:11:00,87.5,34.8,29.89,East,90,3.6,6.7,16,0.00,,,0.00,WUHU216HW,2013-06-29 10:11:00,
2013-06-29 03:16:00,87.8,33.3,29.89,SE,135,4.0,6.9,15,0.00,,,0.00,WUHU216HW,2013-06-29 10:16:00,
2013-06-29 03:21:00,87.8,33.3,29.89,East,90,5.6,6.9,15,0.00,,,0.00,WUHU216HW,2013-06-29 10:21:00,
2013-06-29 03:26:00,87.8,33.3,29.89,ESE,113,4.0,6.9,15,0.00,,,0.00,WUHU216HW,2013-06-29 10:26:00,
2013-06-29 03:31:00,87.7,33.1,29.90,East,90,9.4,9.4,15,0.00,,,0.00,WUHU216HW,2013-06-29 10:31:00,
2013-06-29 03:36:00,87.5,33.0,29.89,ESE,113,6.3,9.4,15,0.00,,,0.00,WUHU216HW,2013-06-29 10:36:00,
2013-06-29 03:41:00,87.5,33.0,29.89,ENE,68,8.5,9.4,15,0.00,,,0.00,WUHU216HW,2013-06-29 10:41:00,
2013-06-29 03:46:00,87.5,33.0,29.90,ESE,113,5.1,8.7,15,0.00,,,0.00,WUHU216HW,2013-06-29 10:46:00,
2013-06-29 03:51:00,87.5,34.8,29.90,ESE,113,6.9,9.4,16,0.00,,,0.00,WUHU216HW,2013-06-29 10:51:00,
2013-06-29 03:56:00,87.5,34.8,29.90,East,90,4.0,9.4,16,0.00,,,0.00,WUHU216HW,2013-06-29 10:56:00,
2013-06-29 04:01:00,87.5,34.8,29.90,ENE,68,5.6,8.5,16,0.00,,,0.00,WUHU216HW,2013-06-29 11:01:00,
2013-06-29 04:06:00,87.5,34.8,29.90,SE,135,2.5,8.5,16,0.00,,,0.00,WUHU216HW,2013-06-29 11:06:00,
2013-06-29 04:11:00,87.5,34.8,29.90,East,90,4.7,6.3,16,0.00,,,0.00,WUHU216HW,2013-06-29 11:11:00,
2013-06-29 04:16:00,87.5,34.8,29.90,ESE,113,2.9,6.9,16,0.00,,,0.00,WUHU216HW,2013-06-29 11:16:00,
2013-06-29 04:21:00,87.3,34.6,29.91,ESE,113,3.4,6.9,16,0.00,,,0.00,WUHU216HW,2013-06-29 11:21:00,
2013-06-29 04:26:00,87.1,34.4,29.91,SW,225,0.4,4.3,16,0.00,,,0.00,WUHU216HW,2013-06-29 11:26:00,
2013-06-29 04:31:00,86.8,34.1,29.91,North,0,0.2,3.4,16,0.00,,,0.00,WUHU216HW,2013-06-29 11:31:00,
2013-06-29 04:36:00,86.0,35.2,29.91,ENE,68,2.5,3.4,17,0.00,,,0.00,WUHU216HW,2013-06-29 11:36:00,
2013-06-29 04:41:00,85.5,34.7,29.91,South,180,1.6,3.1,17,0.00,,,0.00,WUHU216HW,2013-06-29 11:41:00,
2013-06-29 04:46:00,85.3,34.7,29.90,South,180,1.8,3.4,17,0.00,,,0.00,WUHU216HW,2013-06-29 11:46:00,
2013-06-29 04:51:00,85.0,34.3,29.90,SW,225,0.2,3.6,17,0.00,,,0.00,WUHU216HW,2013-06-29 11:51:00,
2013-06-29 04:56:00,84.6,34.0,29.90,SSE,158,0.7,3.6,17,0.00,,,0.00,WUHU216HW,2013-06-29 11:56:00,
2013-06-29 05:01:00,84.4,33.9,29.90,ENE,68,1.1,2.5,17,0.00,,,0.00,WUHU216HW,2013-06-29 12:01:00,
2013-06-29 05:06:00,84.1,35.3,29.90,ESE,113,2.5,2.5,18,0.00,,,0.00,WUHU216HW,2013-06-29 12:06:00,
2013-06-29 05:11:00,83.9,35.2,29.90,ESE,113,3.6,4.7,18,0.00,,,0.00,WUHU216HW,2013-06-29 12:11:00,
2013-06-29 05:16:00,83.7,35.0,29.90,SE,135,3.4,4.7,18,0.00,,,0.00,WUHU216HW,2013-06-29 12:16:00,
2013-06-29 05:21:00,83.5,34.9,29.90,East,90,5.4,5.6,18,0.00,,,0.00,WUHU216HW,2013-06-29 12:21:00,
2013-06-29 05:26:00,83.5,34.9,29.91,ESE,113,4.7,6.9,18,0.00,,,0.00,WUHU216HW,2013-06-29 12:26:00,
2013-06-29 05:31:00,83.9,35.2,29.91,East,90,4.9,6.9,18,0.00,,,0.00,WUHU216HW,2013-06-29 12:31:00,
2013-06-29 05:36:00,83.9,35.2,29.91,East,90,5.1,6.9,18,0.00,,,0.00,WUHU216HW,2013-06-29 12:36:00,
2013-06-29 05:41:00,84.1,35.3,29.92,ESE,113,5.4,8.5,18,0.00,,,0.00,WUHU216HW,2013-06-29 12:41:00,
2013-06-29 05:46:00,84.2,35.5,29.92,SE,135,4.0,8.5,18,0.00,,,0.00,WUHU216HW,2013-06-29 12:46:00,
2013-06-29 05:51:00,84.2,35.5,29.92,ESE,113,5.4,8.5,18,0.00,,,0.00,WUHU216HW,2013-06-29 12:51:00,
2013-06-29 05:56:00,84.4,35.7,29.92,SE,135,5.4,7.4,18,0.00,,,0.00,WUHU216HW,2013-06-29 12:56:00,
2013-06-29 06:01:00,84.6,35.7,29.92,ESE,113,5.6,8.7,18,0.00,,,0.00,WUHU216HW,2013-06-29 13:01:00,
2013-06-29 06:06:00,84.8,35.9,29.93,East,90,6.0,8.7,18,0.00,,,0.00,WUHU216HW,2013-06-29 13:06:00,
2013-06-29 06:11:00,85.0,34.3,29.93,ESE,113,6.3,7.6,17,0.00,,,0.00,WUHU216HW,2013-06-29 13:11:00,
2013-06-29 06:16:00,85.3,34.7,29.93,ESE,113,6.9,7.6,17,0.00,,,0.00,WUHU216HW,2013-06-29 13:16:00,
2013-06-29 06:21:00,85.7,34.9,29.93,SE,135,9.2,9.8,17,0.00,,,0.00,WUHU216HW,2013-06-29 13:21:00,
2013-06-29 06:26:00,86.0,35.2,29.93,ESE,113,8.9,11.9,17,0.00,,,0.00,WUHU216HW,2013-06-29 13:26:00,
2013-06-29 06:31:00,86.6,35.6,29.93,ESE,113,7.8,11.9,17,0.00,,,0.00,WUHU216HW,2013-06-29 13:31:00,
2013-06-29 06:36:00,87.1,36.1,29.93,ENE,68,6.3,10.5,17,0.00,,,0.00,WUHU216HW,2013-06-29 13:36:00,
2013-06-29 06:41:00,87.7,34.8,29.93,East,90,8.3,10.5,16,0.00,,,0.00,WUHU216HW,2013-06-29 13:41:00,
2013-06-29 06:46:00,88.4,35.5,29.93,SE,135,8.5,11.6,16,0.00,,,0.00,WUHU216HW,2013-06-29 13:46:00,
2013-06-29 06:51:00,88.9,35.8,29.92,ESE,113,8.1,11.6,16,0.00,,,0.00,WUHU216HW,2013-06-29 13:51:00,
2013-06-29 06:56:00,89.3,36.1,29.92,East,90,6.5,10.1,16,0.00,,,0.00,WUHU216HW,2013-06-29 13:56:00,
2013-06-29 07:01:00,89.6,36.4,29.92,ESE,113,9.2,9.2,16,0.00,,,0.00,WUHU216HW,2013-06-29 14:01:00,
2013-06-29 07:06:00,90.2,36.8,29.92,ENE,68,5.8,10.5,16,0.00,,,0.00,WUHU216HW,2013-06-29 14:06:00,
2013-06-29 07:11:00,90.5,37.1,29.93,East,90,8.7,10.5,16,0.00,,,0.00,WUHU216HW,2013-06-29 14:11:00,
2013-06-29 07:16:00,90.7,37.3,29.93,ESE,113,6.7,8.7,16,0.00,,,0.00,WUHU216HW,2013-06-29 14:16:00,
2013-06-29 07:21:00,91.1,35.8,29.93,East,90,8.1,8.7,15,0.00,,,0.00,WUHU216HW,2013-06-29 14:21:00,
2013-06-29 07:26:00,91.6,38.0,29.93,ESE,113,4.7,8.5,16,0.00,,,0.00,WUHU216HW,2013-06-29 14:26:00,
2013-06-29 07:31:00,92.5,36.9,29.93,ESE,113,7.4,10.3,15,0.00,,,0.00,WUHU216HW,2013-06-29 14:31:00,
2013-06-29 07:36:00,93.4,37.6,29.93,ESE,113,8.9,11.0,15,0.00,,,0.00,WUHU216HW,2013-06-29 14:36:00,
2013-06-29 07:41:00,94.3,38.4,29.94,SSE,158,4.7,11.0,15,0.00,,,0.00,WUHU216HW,2013-06-29 14:41:00,
2013-06-29 07:46:00,95.0,38.9,29.94,SE,135,8.5,9.2,15,0.00,,,0.00,WUHU216HW,2013-06-29 14:46:00,
2013-06-29 07:51:00,95.6,39.3,29.94,East,90,7.6,10.5,15,0.00,,,0.00,WUHU216HW,2013-06-29 14:51:00,
2013-06-29 07:56:00,96.1,39.8,29.94,ESE,113,7.4,10.5,15,0.00,,,0.00,WUHU216HW,2013-06-29 14:56:00,
2013-06-29 08:01:00,96.5,38.3,29.94,East,90,7.6,12.3,14,0.00,,,0.00,WUHU216HW,2013-06-29 15:01:00,
2013-06-29 08:06:00,96.8,38.5,29.93,ESE,113,9.2,12.5,14,0.00,,,0.00,WUHU216HW,2013-06-29 15:06:00,
2013-06-29 08:11:00,97.4,37.2,29.93,ESE,113,9.8,12.5,13,0.00,,,0.00,WUHU216HW,2013-06-29 15:11:00,
2013-06-29 08:16:00,97.9,37.6,29.93,ESE,113,10.5,13.2,13,0.00,,,0.00,WUHU216HW,2013-06-29 15:16:00,
2013-06-29 08:21:00,98.5,38.0,29.93,SE,135,11.9,13.2,13,0.00,,,0.00,WUHU216HW,2013-06-29 15:21:00,
2013-06-29 08:26:00,99.0,38.4,29.92,SE,135,10.7,13.2,13,0.00,,,0.00,WUHU216HW,2013-06-29 15:26:00,
2013-06-29 08:31:00,99.5,40.7,29.92,ESE,113,6.9,13.2,14,0.00,,,0.00,WUHU216HW,2013-06-29 15:31:00,
2013-06-29 08:36:00,100.1,37.5,29.93,ESE,113,10.1,12.5,12,0.00,,,0.00,WUHU216HW,2013-06-29 15:36:00,
2013-06-29 08:41:00,100.4,37.8,29.93,ESE,113,8.1,12.5,12,0.00,,,0.00,WUHU216HW,2013-06-29 15:41:00,
2013-06-29 08:46:00,100.8,38.1,29.93,SSE,158,6.3,11.0,12,0.00,,,0.00,WUHU216HW,2013-06-29 15:46:00,
2013-06-29 08:51:00,101.0,38.2,29.93,ESE,113,11.0,11.4,12,0.00,,,0.00,WUHU216HW,2013-06-29 15:51:00,
2013-06-29 08:56:00,101.5,38.6,29.94,SE,135,6.5,13.4,12,0.00,,,0.00,WUHU216HW,2013-06-29 15:56:00,
2013-06-29 09:01:00,102.1,39.0,29.94,ESE,113,6.5,13.4,12,0.00,,,0.00,WUHU216HW,2013-06-29 16:01:00,
2013-06-29 09:06:00,102.6,39.4,29.94,SSW,203,6.5,11.0,12,0.00,,,0.00,WUHU216HW,2013-06-29 16:06:00,
2013-06-29 09:11:00,103.0,37.9,29.94,SE,135,10.3,11.4,11,0.00,,,0.00,WUHU216HW,2013-06-29 16:11:00,
2013-06-29 09:16:00,103.3,38.2,29.95,SE,135,10.1,11.4,11,0.00,,,0.00,WUHU216HW,2013-06-29 16:16:00,
2013-06-29 09:21:00,103.3,40.0,29.94,ESE,113,11.2,11.2,12,0.00,,,0.00,WUHU216HW,2013-06-29 16:21:00,
2013-06-29 09:26:00,103.9,40.4,29.94,SSE,158,7.4,11.2,12,0.00,,,0.00,WUHU216HW,2013-06-29 16:26:00,
2013-06-29 09:31:00,104.4,39.0,29.93,SSE,158,8.5,11.2,11,0.00,,,0.00,WUHU216HW,2013-06-29 16:31:00,
2013-06-29 09:36:00,104.9,39.3,29.93,ENE,68,10.7,10.7,11,0.00,,,0.00,WUHU216HW,2013-06-29 16:36:00,
2013-06-29 09:41:00,105.5,39.8,29.93,SE,135,10.7,13.4,11,0.00,,,0.00,WUHU216HW,2013-06-29 16:41:00,
2013-06-29 09:46:00,105.7,39.9,29.93,East,90,11.4,13.4,11,0.00,,,0.00,WUHU216HW,2013-06-29 16:46:00,
2013-06-29 09:51:00,106.2,40.3,29.93,SSE,158,9.6,11.4,11,0.00,,,0.00,WUHU216HW,2013-06-29 16:51:00,
2013-06-29 09:56:00,106.7,38.9,29.93,South,180,10.3,13.2,10,0.00,,,0.00,WUHU216HW,2013-06-29 16:56:00,
2013-06-29 10:01:00,107.3,41.1,29.93,SE,135,7.2,14.3,11,0.00,,,0.00,WUHU216HW,2013-06-29 17:01:00,
2013-06-29 10:06:00,108.0,41.7,29.94,ESE,113,7.2,14.3,11,0.00,,,0.00,WUHU216HW,2013-06-29 17:06:00,
2013-06-29 10:11:00,108.4,41.9,29.94,SE,135,6.3,13.4,11,0.00,,,0.00,WUHU216HW,2013-06-29 17:11:00,
2013-06-29 10:16:00,109.1,42.5,29.95,ESE,113,10.3,14.1,11,0.00,,,0.00,WUHU216HW,2013-06-29 17:16:00,
2013-06-29 10:21:00,110.0,43.2,29.95,SSE,158,5.8,14.1,11,0.00,,,0.00,WUHU216HW,2013-06-29 17:21:00,
2013-06-29 10:26:00,110.3,43.5,29.95,SSE,158,6.9,11.4,11,0.00,,,0.00,WUHU216HW,2013-06-29 17:26:00,
2013-06-29 10:31:00,110.5,41.8,29.95,SE,135,8.3,11.4,10,0.00,,,0.00,WUHU216HW,2013-06-29 17:31:00,
2013-06-29 10:36:00,110.5,43.6,29.94,ESE,113,11.4,11.4,11,0.00,,,0.00,WUHU216HW,2013-06-29 17:36:00,
2013-06-29 10:41:00,110.9,42.0,29.94,SE,135,10.5,11.4,10,0.00,,,0.00,WUHU216HW,2013-06-29 17:41:00,
2013-06-29 10:46:00,111.2,42.3,29.94,SE,135,5.4,11.4,9,0.00,,,0.00,WUHU216HW,2013-06-29 17:46:00,
2013-06-29 10:51:00,111.2,42.3,29.93,SSE,158,5.4,10.5,9,0.00,,,0.00,WUHU216HW,2013-06-29 17:51:00,
2013-06-29 10:56:00,112.3,43.0,29.93,SE,135,6.9,12.8,9,0.00,,,0.00,WUHU216HW,2013-06-29 17:56:00,
2013-06-29 11:01:00,113.8,44.1,29.93,SE,135,15.2,15.2,9,0.00,,,0.00,WUHU216HW,2013-06-29 18:01:00,
2013-06-29 11:06:00,114.5,44.7,29.93,ESE,113,12.8,15.2,9,0.00,,,0.00,WUHU216HW,2013-06-29 18:06:00,
2013-06-29 11:11:00,114.8,45.0,29.93,SE,135,8.1,14.1,7,0.00,,,0.00,WUHU216HW,2013-06-29 18:11:00,
2013-06-29 11:16:00,115.4,45.4,29.93,SSW,203,11.0,13.4,9,0.00,,,0.00,WUHU216HW,2013-06-29 18:16:00,
2013-06-29 11:59:00,115.2,45.3,29.93,SSE,158,5.6,5.6,7,0.00,,,0.00,WUHU216HW,2013-06-29 18:59:00,
2013-06-29 12:04:00,115.4,45.4,29.92,South,180,6.3,9.8,7,0.00,,,0.00,WUHU216HW,2013-06-29 19:04:00,
2013-06-29 12:09:00,114.3,44.6,29.92,SSW,203,8.7,16.1,7,0.00,,,0.00,WUHU216HW,2013-06-29 19:09:00,
2013-06-29 12:14:00,113.4,43.8,29.91,SE,135,6.9,16.1,9,0.00,,,0.00,WUHU216HW,2013-06-29 19:14:00,
2013-06-29 12:19:00,112.5,43.2,29.90,SE,135,9.8,12.1,9,0.00,,,0.00,WUHU216HW,2013-06-29 19:19:00,
2013-06-29 12:24:00,111.8,42.7,29.91,SSW,203,6.3,12.1,9,0.00,,,0.00,WUHU216HW,2013-06-29 19:24:00,
2013-06-29 12:29:00,110.9,42.0,29.91,South,180,8.5,11.0,9,0.00,,,0.00,WUHU216HW,2013-06-29 19:29:00,
2013-06-29 12:34:00,110.9,42.0,29.91,SE,135,3.8,11.0,10,0.00,,,0.00,WUHU216HW,2013-06-29 19:34:00,
2013-06-29 12:39:00,112.0,42.9,29.91,South,180,7.6,11.6,9,0.00,,,0.00,WUHU216HW,2013-06-29 19:39:00,
2013-06-29 12:44:00,113.4,43.8,29.91,SSE,158,8.7,11.6,9,0.00,,,0.00,WUHU216HW,2013-06-29 19:44:00,
2013-06-29 12:49:00,114.7,44.8,29.91,ESE,113,4.3,11.6,9,0.00,,,0.00,WUHU216HW,2013-06-29 19:49:00,
2013-06-29 12:54:00,115.6,45.6,29.92,SSE,158,4.0,11.6,9,0.00,,,0.00,WUHU216HW,2013-06-29 19:54:00,
2013-06-29 12:59:00,116.1,45.9,29.91,SSE,158,6.3,10.1,7,0.00,,,0.00,WUHU216HW,2013-06-29 19:59:00,
2013-06-29 13:04:00,116.5,46.2,29.90,ESE,113,7.4,10.1,9,0.00,,,0.00,WUHU216HW,2013-06-29 20:04:00,
2013-06-29 13:09:00,116.6,46.3,29.90,SSE,158,2.5,9.4,7,0.00,,,0.00,WUHU216HW,2013-06-29 20:09:00,
2013-06-29 13:14:00,117.2,46.7,29.90,ESE,113,8.3,11.0,7,0.00,,,0.00,WUHU216HW,2013-06-29 20:14:00,
2013-06-29 13:19:00,117.7,47.2,29.89,SSE,158,10.5,11.0,7,0.00,,,0.00,WUHU216HW,2013-06-29 20:19:00,
2013-06-29 13:24:00,118.4,47.7,29.88,SSE,158,15.0,15.0,7,0.00,,,0.00,WUHU216HW,2013-06-29 20:24:00,
2013-06-29 13:29:00,118.8,48.0,29.88,SW,225,9.8,15.0,7,0.00,,,0.00,WUHU216HW,2013-06-29 20:29:00,
2013-06-29 13:34:00,117.7,47.2,29.88,SSE,158,7.2,15.0,7,0.00,,,0.00,WUHU216HW,2013-06-29 20:34:00,
2013-06-29 13:39:00,117.7,47.2,29.88,ESE,113,3.4,9.8,7,0.00,,,0.00,WUHU216HW,2013-06-29 20:39:00,
2013-06-29 13:44:00,118.1,47.4,29.88,East,90,1.8,8.3,7,0.00,,,0.00,WUHU216HW,2013-06-29 20:44:00,
2013-06-29 13:49:00,118.1,47.4,29.88,SSE,158,2.9,6.3,7,0.00,,,0.00,WUHU216HW,2013-06-29 20:49:00,
2013-06-29 13:54:00,118.4,47.7,29.88,SSE,158,5.4,16.1,7,0.00,,,0.00,WUHU216HW,2013-06-29 20:54:00,
2013-06-29 13:59:00,117.9,47.3,29.88,South,180,6.9,16.1,7,0.00,,,0.00,WUHU216HW,2013-06-29 20:59:00,
2013-06-29 14:04:00,118.1,47.4,29.88,SW,225,10.3,12.3,7,0.00,,,0.00,WUHU216HW,2013-06-29 21:04:00,
2013-06-29 14:09:00,118.4,47.7,29.89,East,90,3.6,15.0,6,0.00,,,0.00,WUHU216HW,2013-06-29 21:09:00,
2013-06-29 14:14:00,118.8,48.0,29.88,SW,225,11.4,15.0,6,0.00,,,0.00,WUHU216HW,2013-06-29 21:14:00,
2013-06-29 14:19:00,117.7,47.2,29.88,SSW,203,6.3,12.8,6,0.00,,,0.00,WUHU216HW,2013-06-29 21:19:00,
2013-06-29 16:59:00,113.4,43.8,29.82,NW,315,8.5,8.5,7,0.00,,,0.00,WUHU216HW,2013-06-29 23:59:00,
2013-06-29 17:04:00,112.5,43.2,29.82,NNW,338,5.4,10.5,7,0.00,,,0.00,WUHU216HW,2013-06-30 00:04:00,
2013-06-29 17:09:00,110.9,42.0,29.82,NNW,338,6.7,10.5,7,0.00,,,0.00,WUHU216HW,2013-06-30 00:09:00,
2013-06-29 17:14:00,109.6,41.1,29.82,North,0,4.5,9.2,7,0.00,,,0.00,WUHU216HW,2013-06-30 00:14:00,
2013-06-29 17:20:00,109.1,40.6,29.82,North,0,6.3,8.5,9,0.00,,,0.00,WUHU216HW,2013-06-30 00:20:00,
2013-06-29 17:24:00,108.9,40.5,29.83,NNE,23,2.2,6.9,9,0.00,,,0.00,WUHU216HW,2013-06-30 00:24:00,
2013-06-29 17:30:00,108.2,41.9,29.81,NNE,23,26.4,27.3,11,0.00,,,0.00,WUHU216HW,2013-06-30 00:30:00,
2013-06-29 17:35:00,105.3,37.8,29.83,NW,315,13.4,27.3,10,0.00,,,0.00,WUHU216HW,2013-06-30 00:35:00,
2013-06-29 17:40:00,104.2,38.9,29.83,NNE,23,7.2,26.4,11,0.00,,,0.00,WUHU216HW,2013-06-30 00:40:00,
2013-06-29 17:45:00,104.6,37.3,29.83,East,90,12.1,23.3,10,0.00,,,0.00,WUHU216HW,2013-06-30 00:45:00,
2013-06-29 17:49:00,104.8,37.5,29.82,SE,135,2.2,18.3,10,0.00,,,0.00,WUHU216HW,2013-06-30 00:49:00,
2013-06-29 17:55:00,105.1,37.6,29.82,South,180,2.0,8.7,10,0.00,,,0.00,WUHU216HW,2013-06-30 00:55:00,
2013-06-29 17:59:00,104.9,37.5,29.83,SW,225,0.7,5.4,10,0.00,,,0.00,WUHU216HW,2013-06-30 00:59:00,
2013-06-29 18:05:00,104.9,37.5,29.83,West,270,2.7,5.4,10,0.00,,,0.00,WUHU216HW,2013-06-30 01:05:00,
2013-06-29 18:10:00,104.6,37.3,29.83,NW,315,5.8,7.4,10,0.00,,,0.00,WUHU216HW,2013-06-30 01:10:00,
2013-06-29 18:15:00,104.0,38.7,29.83,North,0,10.3,16.3,11,0.00,,,0.00,WUHU216HW,2013-06-30 01:15:00,
2013-06-29 18:20:00,103.7,38.4,29.83,NNE,23,5.1,16.3,11,0.00,,,0.00,WUHU216HW,2013-06-30 01:20:00,
2013-06-29 18:25:00,103.5,38.3,29.84,NNW,338,2.5,13.4,11,0.00,,,0.00,WUHU216HW,2013-06-30 01:25:00,
2013-06-29 18:30:00,103.5,38.3,29.83,WNW,293,8.5,8.9,11,0.00,,,0.00,WUHU216HW,2013-06-30 01:30:00,
2013-06-29 18:35:00,103.3,38.2,29.84,North,0,4.0,8.9,11,0.00,,,0.00,WUHU216HW,2013-06-30 01:35:00,
2013-06-29 18:40:00,103.3,38.2,29.83,North,0,6.3,9.2,11,0.00,,,0.00,WUHU216HW,2013-06-30 01:40:00,
2013-06-29 18:45:00,103.1,38.0,29.83,North,0,8.3,9.2,11,0.00,,,0.00,WUHU216HW,2013-06-30 01:45:00,
2013-06-29 18:49:00,103.0,37.9,29.84,NNE,23,8.7,10.1,11,0.00,,,0.00,WUHU216HW,2013-06-30 01:49:00,
2013-06-29 18:55:00,103.1,38.0,29.83,NNW,338,2.2,10.1,11,0.00,,,0.00,WUHU216HW,2013-06-30 01:55:00,
2013-06-29 19:00:00,103.7,38.4,29.84,ENE,68,4.0,8.9,11,0.00,,,0.00,WUHU216HW,2013-06-30 02:00:00,
2013-06-29 19:04:00,103.3,40.0,29.84,ESE,113,18.6,22.4,12,0.00,,,0.00,WUHU216HW,2013-06-30 02:04:00,
2013-06-29 19:09:00,102.4,39.2,29.85,East,90,14.3,24.6,12,0.00,,,0.00,WUHU216HW,2013-06-30 02:09:00,
2013-06-29 19:15:00,101.5,42.2,29.86,ESE,113,10.7,24.6,14,0.00,,,0.00,WUHU216HW,2013-06-30 02:15:00,
2013-06-29 19:19:00,101.0,41.8,29.86,NE,45,11.4,20.1,14,0.00,,,0.00,WUHU216HW,2013-06-30 02:19:00,
2013-06-29 19:24:00,100.6,41.5,29.87,NE,45,11.4,17.9,14,0.00,,,0.00,WUHU216HW,2013-06-30 02:24:00,
2013-06-29 19:30:00,100.4,41.4,29.87,NNE,23,17.2,17.2,14,0.00,,,0.00,WUHU216HW,2013-06-30 02:30:00,
2013-06-29 19:35:00,100.3,41.2,29.86,NE,45,6.9,17.2,14,0.00,,,0.00,WUHU216HW,2013-06-30 02:35:00,
2013-06-29 19:40:00,100.4,41.4,29.86,NE,45,4.9,17.2,14,0.00,,,0.00,WUHU216HW,2013-06-30 02:40:00,
2013-06-29 19:45:00,100.4,37.8,29.85,North,0,8.7,11.0,12,0.00,,,0.00,WUHU216HW,2013-06-30 02:45:00,
2013-06-29 19:50:00,100.8,38.1,29.85,North,0,2.9,11.0,12,0.00,,,0.00,WUHU216HW,2013-06-30 02:50:00,
2013-06-29 19:55:00,100.6,41.5,29.84,North,0,5.6,8.7,14,0.00,,,0.00,WUHU216HW,2013-06-30 02:55:00,
2013-06-29 20:00:00,100.4,41.4,29.84,NNE,23,5.8,8.5,14,0.00,,,0.00,WUHU216HW,2013-06-30 03:00:00,
2013-06-29 20:05:00,100.4,41.4,29.83,NNE,23,6.5,8.5,14,0.00,,,0.00,WUHU216HW,2013-06-30 03:05:00,
2013-06-29 20:10:00,100.3,41.2,29.83,NNE,23,5.1,6.9,14,0.00,,,0.00,WUHU216HW,2013-06-30 03:10:00,
2013-06-29 20:15:00,99.9,41.0,29.83,North,0,4.5,6.5,14,0.00,,,0.00,WUHU216HW,2013-06-30 03:15:00,
2013-06-29 20:20:00,99.7,40.9,29.83,North,0,4.7,6.5,14,0.00,,,0.00,WUHU216HW,2013-06-30 03:20:00,
2013-06-29 20:25:00,99.7,40.9,29.83,NNE,23,6.9,7.6,14,0.00,,,0.00,WUHU216HW,2013-06-30 03:25:00,
2013-06-29 20:30:00,99.9,41.0,29.83,North,0,4.5,8.5,14,0.00,,,0.00,WUHU216HW,2013-06-30 03:30:00,
2013-06-29 20:35:00,100.1,37.5,29.83,NNE,23,4.3,8.5,12,0.00,,,0.00,WUHU216HW,2013-06-30 03:35:00,
2013-06-29 20:40:00,100.1,37.5,29.84,North,0,2.7,6.0,12,0.00,,,0.00,WUHU216HW,2013-06-30 03:40:00,
2013-06-29 20:45:00,100.3,37.6,29.84,North,0,7.2,7.2,12,0.00,,,0.00,WUHU216HW,2013-06-30 03:45:00,
2013-06-29 20:50:00,100.4,37.8,29.84,NW,315,4.3,7.4,12,0.00,,,0.00,WUHU216HW,2013-06-30 03:50:00,
2013-06-29 20:55:00,100.4,37.8,29.85,NW,315,5.1,7.4,12,0.00,,,0.00,WUHU216HW,2013-06-30 03:55:00,
2013-06-29 21:00:00,100.4,37.8,29.85,NW,315,1.8,5.6,12,0.00,,,0.00,WUHU216HW,2013-06-30 04:00:00,
2013-06-29 21:01:00,100.4,37.8,29.85,NW,315,2.0,5.6,12,0.00,,,0.00,WUHU216HW,2013-06-30 04:01:00,
2013-06-29 21:02:00,100.4,37.8,29.85,NW,315,2.2,5.6,12,0.00,,,0.00,WUHU216HW,2013-06-30 04:02:00,
2013-06-29 21:07:00,100.3,37.6,29.84,North,0,2.0,5.8,12,0.00,,,0.00,WUHU216HW,2013-06-30 04:07:00,
2013-06-29 21:12:00,100.3,37.6,29.84,NNE,23,2.7,5.8,12,0.00,,,0.00,WUHU216HW,2013-06-30 04:12:00,
2013-06-29 21:17:00,100.1,37.5,29.84,North,0,1.8,4.0,12,0.00,,,0.00,WUHU216HW,2013-06-30 04:17:00,
2013-06-29 21:22:00,100.4,37.8,29.84,NNW,338,2.2,4.5,12,0.00,,,0.00,WUHU216HW,2013-06-30 04:22:00,
2013-06-29 21:27:00,100.4,37.8,29.83,NNW,338,1.6,4.5,12,0.00,,,0.00,WUHU216HW,2013-06-30 04:27:00,
2013-06-29 21:32:00,100.4,37.8,29.84,North,0,3.1,5.4,12,0.00,,,0.00,WUHU216HW,2013-06-30 04:32:00,
2013-06-29 21:37:00,100.4,37.8,29.84,NNW,338,3.4,6.7,12,0.00,,,0.00,WUHU216HW,2013-06-30 04:37:00,
2013-06-29 21:42:00,100.4,37.8,29.84,North,0,3.1,8.9,12,0.00,,,0.00,WUHU216HW,2013-06-30 04:42:00,
2013-06-29 21:47:00,100.6,37.9,29.85,NNE,23,2.9,8.9,12,0.00,,,0.00,WUHU216HW,2013-06-30 04:47:00,
2013-06-29 21:52:00,100.6,37.9,29.85,North,0,3.4,5.8,12,0.00,,,0.00,WUHU216HW,2013-06-30 04:52:00,
2013-06-29 21:57:00,100.4,37.8,29.85,NNW,338,0.4,5.4,12,0.00,,,0.00,WUHU216HW,2013-06-30 04:57:00,
2013-06-29 22:02:00,100.4,37.8,29.85,NNW,338,2.2,4.7,12,0.00,,,0.00,WUHU216HW,2013-06-30 05:02:00,
2013-06-29 22:07:00,100.4,37.8,29.86,NNW,338,2.5,4.9,12,0.00,,,0.00,WUHU216HW,2013-06-30 05:07:00,
2013-06-29 22:12:00,100.4,37.8,29.86,NW,315,2.5,4.9,12,0.00,,,0.00,WUHU216HW,2013-06-30 05:12:00,
2013-06-29 22:17:00,100.4,37.8,29.86,NNW,338,3.8,6.3,12,0.00,,,0.00,WUHU216HW,2013-06-30 05:17:00,
2013-06-29 22:22:00,100.4,37.8,29.85,NNE,23,4.0,6.3,12,0.00,,,0.00,WUHU216HW,2013-06-30 05:22:00,
2013-06-29 22:27:00,100.4,37.8,29.85,NNW,338,2.7,6.3,12,0.00,,,0.00,WUHU216HW,2013-06-30 05:27:00,
2013-06-29 22:32:00,100.4,37.8,29.85,NW,315,1.8,5.8,12,0.00,,,0.00,WUHU216HW,2013-06-30 05:32:00,
2013-06-29 22:37:00,100.6,37.9,29.85,North,0,5.6,6.0,12,0.00,,,0.00,WUHU216HW,2013-06-30 05:37:00,
2013-06-29 22:42:00,100.6,37.9,29.85,North,0,3.8,6.0,12,0.00,,,0.00,WUHU216HW,2013-06-30 05:42:00,
2013-06-29 22:47:00,100.6,37.9,29.85,NE,45,5.4,7.2,12,0.00,,,0.00,WUHU216HW,2013-06-30 05:47:00,
2013-06-29 22:52:00,100.4,37.8,29.86,NE,45,1.1,7.2,12,0.00,,,0.00,WUHU216HW,2013-06-30 05:52:00,
2013-06-29 22:57:00,99.9,37.4,29.87,SSW,203,6.9,6.9,12,0.00,,,0.00,WUHU216HW,2013-06-30 05:57:00,
2013-06-29 23:02:00,98.6,38.2,29.87,WSW,248,9.6,9.6,13,0.00,,,0.00,WUHU216HW,2013-06-30 06:02:00,
2013-06-29 23:07:00,97.6,37.3,29.87,WNW,293,6.7,9.6,13,0.00,,,0.00,WUHU216HW,2013-06-30 06:07:00,
2013-06-29 23:12:00,96.7,40.1,29.87,NW,315,3.4,7.4,15,0.00,,,0.00,WUHU216HW,2013-06-30 06:12:00,
2013-06-29 23:17:00,96.1,39.8,29.87,NW,315,2.5,6.7,15,0.00,,,0.00,WUHU216HW,2013-06-30 06:17:00,
2013-06-29 23:22:00,95.8,39.4,29.87,West,270,3.8,5.6,15,0.00,,,0.00,WUHU216HW,2013-06-30 06:22:00,
2013-06-29 23:27:00,95.4,39.2,29.87,West,270,4.9,5.8,15,0.00,,,0.00,WUHU216HW,2013-06-30 06:27:00,
2013-06-29 23:32:00,95.4,39.2,29.87,NW,315,5.4,8.1,15,0.00,,,0.00,WUHU216HW,2013-06-30 06:32:00,
2013-06-29 23:37:00,95.8,41.2,29.87,NW,315,7.8,8.9,16,0.00,,,0.00,WUHU216HW,2013-06-30 06:37:00,
2013-06-29 23:42:00,96.3,41.7,29.87,NW,315,7.6,10.3,16,0.00,,,0.00,WUHU216HW,2013-06-30 06:42:00,
2013-06-29 23:47:00,96.7,41.9,29.87,West,270,5.4,10.3,16,0.00,,,0.00,WUHU216HW,2013-06-30 06:47:00,
2013-06-29 23:52:00,96.8,42.1,29.87,NW,315,5.4,9.4,16,0.00,,,0.00,WUHU216HW,2013-06-30 06:52:00,
2013-06-29 23:57:00,97.0,40.5,29.87,NNW,338,6.3,9.4,15,0.00,,,0.00,WUHU216HW,2013-06-30 06:57:00,